Weather History for El Centro, CA

Change the Weather History Date:

Thursday, June 27, 2013

  Actual Average Record
Temperature  
Mean Temperature 90 °F -  
Max Temperature 108 °F 102 °F 111 °F (2003)
Min Temperature 73 °F 74 °F 69 °F (1997)
Cooling Degree Days 26    
Growing Degree Days 40 (Base 50)    
Moisture  
Dew Point 57 °F    
Average Humidity 33    
Maximum Humidity 58    
Minimum Humidity 17    
Precipitation  
Precipitation 0.00 in - - ()
Sea Level Pressure  
Sea Level Pressure 29.91 in    
Wind  
Wind Speed 3 mph (SE)    
Max Wind Speed 12 mph    
Max Gust Speed -    
Visibility 10 miles    
Events      
Averages and records for this station are not official NWS values.
T = Trace of Precipitation, MM = Missing Value Source: NWS Daily Summary

Daily Weather History Graph

Daily Weather History Graph

Search for Another Location

Airport:

Trip Planner

Search our weather history database for the weather conditions in past years. The results will help you decide how hot, cold, wet, or windy it might be!

Date:

Astronomy

Jun. 27, 2013 Rise Set
Actual Time 5:36 AM PDT 7:54 PM PDT
Civil Twilight 5:08 AM PDT 8:23 PM PDT
Nautical Twilight 4:33 AM PDT 8:58 PM PDT
Astronomical Twilight 3:54 AM PDT 9:36 PM PDT
Moon 11:13 PM PDT (6/27) 10:25 AM PDT (6/27)
Length of Visible Light 15h 15m
Length of Day
14h 18m
Waning Gibbous, 75% of the Moon is Illuminated
Jun 27
Waning Gibbous
Jun 29
Last Quarter
Jul 8
New
Jul 15
First Quarter
Jul 22
Full

Hourly Weather History & Observations

Time (PDT) Temp. Heat Index Dew Point Humidity Pressure Visibility Wind Dir Wind Speed Gust Speed Precip Events Conditions
12:56 AM 79.0 °F - 55.9 °F 45% 29.89 in 10.0 mi Calm Calm - N/A   Clear
1:56 AM 77.0 °F - 60.1 °F 56% 29.89 in 10.0 mi East 4.6 mph - N/A   Clear
2:56 AM 78.1 °F - 62.1 °F 58% 29.90 in 10.0 mi Calm Calm - N/A   Clear
3:56 AM 75.9 °F - 57.9 °F 54% 29.91 in 10.0 mi Calm Calm - N/A   Clear
4:56 AM 73.9 °F - 57.0 °F 55% 29.92 in 7.0 mi NNE 8.1 mph - N/A   Clear
5:56 AM 73.0 °F - 55.9 °F 55% 29.94 in 6.0 mi ENE 5.8 mph - N/A   Haze
6:56 AM 78.1 °F - 57.0 °F 48% 29.96 in 7.0 mi ESE 4.6 mph - N/A   Clear
7:56 AM 84.0 °F 83.0 °F 55.9 °F 38% 29.98 in 9.0 mi Calm Calm - N/A   Clear
8:56 AM 88.0 °F 87.1 °F 59.0 °F 37% 29.99 in 10.0 mi ESE 3.5 mph - N/A   Partly Cloudy
9:56 AM 91.0 °F 93.8 °F 66.0 °F 44% 29.99 in 10.0 mi ESE 5.8 mph - N/A   Partly Cloudy
10:56 AM 93.9 °F 97.0 °F 66.0 °F 40% 29.98 in 10.0 mi East 4.6 mph - N/A   Partly Cloudy
11:56 AM 98.1 °F 100.7 °F 64.0 °F 33% 29.97 in 10.0 mi Calm Calm - N/A   Partly Cloudy
12:56 PM 102.0 °F 103.3 °F 61.0 °F 26% 29.95 in 10.0 mi East 5.8 mph - N/A   Partly Cloudy
1:56 PM 104.0 °F 105.3 °F 60.1 °F 24% 29.93 in 10.0 mi Variable 3.5 mph - N/A   Partly Cloudy
2:56 PM 105.1 °F 104.4 °F 57.0 °F 20% 29.90 in 10.0 mi SE 3.5 mph - N/A   Scattered Clouds
3:56 PM 106.0 °F - 52.0 °F 17% 29.88 in 10.0 mi Calm Calm - N/A   Scattered Clouds
4:56 PM 107.1 °F 105.4 °F 54.0 °F 17% 29.85 in 10.0 mi South 5.8 mph - N/A   Scattered Clouds
5:56 PM 108.0 °F 106.6 °F 55.0 °F 17% 29.84 in 10.0 mi ESE 5.8 mph - N/A   Partly Cloudy
6:56 PM 107.1 °F 106.7 °F 55.9 °F 19% 29.83 in 10.0 mi Calm Calm - N/A   Partly Cloudy
7:56 PM 102.0 °F 101.1 °F 55.9 °F 22% 29.83 in 10.0 mi Calm Calm - N/A   Partly Cloudy
8:56 PM 99.0 °F - 50.0 °F 19% 29.85 in 10.0 mi SW 8.1 mph - N/A   Partly Cloudy
9:56 PM 95.0 °F - 46.9 °F 19% 29.86 in 10.0 mi WSW 11.5 mph - N/A   Partly Cloudy
10:56 PM 93.9 °F - 46.9 °F 20% 29.87 in 10.0 mi WSW 10.4 mph - N/A   Partly Cloudy
11:56 PM 91.9 °F - 46.9 °F 21% 29.87 in 10.0 mi WSW 9.2 mph - N/A   Clear